Terminal Aerodrome Forecast
Issued by NWS Norman, OK

Home | Current Version | Previous Version | Text Only | Print | Product List | Glossary On
Versions: 1 2 3 4 5 6 7 8 9 10 11 12 13
000
FTUS44 KOUN 160520
TAFSPS
TAF
KSPS 160520Z 1606/1706 15010KT P6SM SKC
     FM161500 18020G30KT P6SM SCT250
     FM170200 13010KT P6SM SCT120 BKN250=

USA.gov is the U.S. government's official web portal to all federal, state and local government web resources and services.